EW7906 Weather Reports


Display with metric or nautical units.
time (UTC)temp
F
wind
direction
speed
MPH
gust
MPH
rain 1hr
in
rain 24hr
in
rain mn
in
humidity
%
barometer
mb
20260509111322 101 151 0.0 0.0 0.00 0.00 0.00 100 1011.2
20260509111036 101 151 0.0 0.0 0.00 0.00 0.00 100 1011.2
20260509110238 101 151 0.0 0.0 0.00 0.00 0.00 100 1011.3
20260509105736 101 151 0.0 0.0 0.00 0.00 0.00 100 1011.3
20260509105233 101 151 0.0 0.0 0.00 0.00 0.00 100 1011.3
20260509104728 101 151 0.0 0.0 0.00 0.00 0.00 100 1011.4
20260509104216 101 151 0.0 0.0 0.00 0.00 0.00 100 1011.4
20260509103652 100 151 0.0 0.0 0.00 0.00 0.00 100 1011.2
20260509103152 100 151 0.0 0.0 0.00 0.00 0.00 100 1011.4
20260509102648 100 151 0.0 0.0 0.00 0.00 0.00 100 1011.4
20260509102145 101 151 0.0 0.0 0.00 0.00 0.00 100 1011.3
20260509101908 100 151 0.0 0.0 0.00 0.00 0.00 100 1011.3
20260509101131 101 151 0.0 0.0 0.00 0.00 0.00 100 1011.1
20260509100626 100 151 0.0 0.0 0.00 0.00 0.00 100 1010.9
20260509100122 100 151 0.0 0.0 0.00 0.00 0.00 100 1010.7
20260509095614 101 151 0.0 0.0 0.00 0.00 0.00 100 1010.5
20260509095106 100 151 0.0 0.0 0.00 0.00 0.00 100 1010.2
20260509094603 100 151 0.0 0.0 0.00 0.00 0.00 100 1009.9
20260509094055 100 151 0.0 0.0 0.00 0.00 0.00 100 1009.7
20260509093558 100 151 0.0 0.0 0.00 0.00 0.00 100 1009.7
20260509093050 100 151 0.0 0.0 0.00 0.00 0.00 100 1009.7
20260509092537 100 151 0.0 0.0 0.00 0.00 0.00 100 1009.6
20260509092014 100 151 0.0 0.0 0.00 0.00 0.00 100 1009.6
20260509091507 100 151 0.0 0.0 0.00 0.00 0.00 100 1009.6
20260509091000 100 151 0.0 0.0 0.00 0.00 0.00 100 1009.6
20260509090500 100 151 0.0 0.0 0.00 0.00 0.00 100 1009.7
20260509085957 100 151 0.0 0.0 0.00 0.00 0.00 100 1009.7
20260509085443 100 151 0.0 0.0 0.00 0.00 0.00 100 1009.7
20260509084939 100 151 0.0 0.0 0.00 0.00 0.00 100 1009.7
20260509084434 100 151 0.0 0.0 0.00 0.00 0.00 100 1009.7
20260509083929 100 151 0.0 0.0 0.00 0.00 0.00 100 1009.7
20260509083411 100 151 0.0 0.0 0.00 0.00 0.00 100 1010.0
20260509082859 100 151 0.0 0.0 0.00 0.00 0.00 100 1010.2
20260509082353 100 151 0.0 0.0 0.00 0.00 0.00 100 1010.2
20260509081853 100 151 0.0 0.0 0.00 0.00 0.00 100 1010.4
20260509081622 100 151 0.0 0.0 0.00 0.00 0.00 100 1010.3
20260509080838 100 151 0.0 0.0 0.00 0.00 0.00 100 1010.3
20260509080604 100 151 0.0 0.0 0.00 0.00 0.00 100 1010.0
20260509075829 100 151 0.0 0.0 0.00 0.00 0.00 100 1010.2
20260509075314 100 151 0.0 0.0 0.00 0.00 0.00 100 1010.2
20260509074814 100 151 0.0 0.0 0.00 0.00 0.00 100 1010.2
20260509074303 100 151 0.0 0.0 0.00 0.00 0.00 82 1010.2
20260509073758 100 151 0.0 0.0 0.00 0.00 0.00 69 1010.2
20260509073254 100 151 0.0 0.0 0.00 0.00 0.00 58 1010.2
20260509072753 100 151 0.0 0.0 0.00 0.00 0.00 45 1010.4
20260509072250 100 151 0.0 0.0 0.00 0.00 0.00 34 1010.4
20260509072018 100 151 0.0 0.0 0.00 0.00 0.00 31 1010.5
20260509071240 100 151 0.0 0.0 0.00 0.00 0.00 29 1010.6
20260509070723 100 151 0.0 0.0 0.00 0.00 0.00 24 1010.6
20260509070214 101 151 0.0 0.0 0.00 0.00 0.00 21 1010.7
20260509065713 100 151 0.0 0.0 0.00 0.00 0.00 20 1010.5
20260509065213 100 151 0.0 0.0 0.00 0.00 0.00 16 1010.6
20260509064652 101 151 0.0 0.0 0.00 0.00 0.00 15 1010.3
20260509064141 100 151 0.0 0.0 0.00 0.00 0.00 14 1010.2
20260509063637 100 151 0.0 0.0 0.00 0.00 0.00 12 1010.2
20260509063129 101 151 0.0 0.0 0.00 0.00 0.00 10 1010.2
20260509062626 100 151 0.0 0.0 0.00 0.00 0.00 8 1010.3
20260509062121 101 151 0.0 7.0 0.00 0.00 0.00 7 1010.4
20260509061848 100 151 0.0 7.0 0.00 0.00 0.00 7 1010.3
20260509061612 100 149 0.0 6.0 0.00 0.00 0.00 6 1010.0
20260509060555 100 149 0.0 7.0 0.00 0.00 0.00 5 1009.7
20260509060056 100 153 4.0 7.0 0.00 0.00 0.00 5 1009.6
20260509055827 100 125 0.0 2.0 0.00 0.00 0.00 4 1009.5
20260509055051 100 125 0.0 8.0 0.00 0.00 0.00 4 1009.7
20260509054545 101 125 2.0 9.0 0.00 0.00 0.00 3 1009.9
20260509054045 101 144 0.0 9.0 0.00 0.00 0.00 3 1009.9
20260509053533 101 161 0.0 5.0 0.00 0.00 0.00 3 1009.7
20260509053300 101 160 2.0 6.0 0.00 0.00 0.00 3 1009.5
20260509052525 101 140 2.0 6.0 0.00 0.00 0.00 4 1009.2
20260509052016 101 109 0.0 4.0 0.00 0.00 0.00 4 1009.1
20260509051506 101 146 0.0 6.0 0.00 0.00 0.00 4 1008.9
20260509050957 101 123 4.0 6.0 0.00 0.00 0.00 3 1008.9
20260509050456 101 116 0.0 6.0 0.00 0.00 0.00 2 1009.0
20260509045949 101 137 0.0 6.0 0.00 0.00 0.00 1 1009.1
20260509045715 101 143 0.0 0.0 0.00 0.00 0.00 1 1009.0
20260509045214 100 143 0.0 0.0 0.00 0.00 0.00 100 1009.0
20260509044443 101 143 0.0 0.0 0.00 0.00 0.00 100 1009.1
20260509043938 101 143 0.0 5.0 0.00 0.00 0.00 100 1009.2
20260509043420 101 143 0.0 5.0 0.00 0.00 0.00 100 1009.2
20260509042917 101 133 1.0 5.0 0.00 0.00 0.00 100 1009.2
20260509042418 101 109 0.0 0.0 0.00 0.00 0.00 100 1009.3
20260509041918 101 109 0.0 0.0 0.00 0.00 0.00 100 1009.5
20260509041412 101 109 0.0 0.0 0.00 0.00 0.00 100 1009.5
20260509040913 101 109 0.0 0.0 0.00 0.00 0.00 100 1009.4
20260509040359 101 109 0.0 0.0 0.00 0.00 0.00 100 1009.6
20260509035902 101 109 0.0 0.0 0.00 0.00 0.00 100 1009.5
20260509035351 100 109 0.0 0.0 0.00 0.00 0.00 100 1009.4
20260509034848 101 109 0.0 0.0 0.00 0.00 0.00 100 1009.3
20260509034843 101 109 0.0 0.0 0.00 0.00 0.00 100 1009.3
20260509033837 100 109 0.0 0.0 0.00 0.00 0.00 100 1009.2
20260509033334 101 109 0.0 0.0 0.00 0.00 0.00 100 1009.2
20260509032817 101 109 0.0 0.0 0.00 0.00 0.00 100 1009.3
20260509032530 101 109 0.0 0.0 0.00 0.00 0.00 100 1009.4
20260509031749 101 109 0.0 0.0 0.00 0.00 0.00 100 1009.4
20260509031241 100 109 0.0 0.0 0.00 0.00 0.00 100 1009.3
20260509030739 101 109 0.0 0.0 0.00 0.00 0.00 100 1009.3
20260509030201 101 109 0.0 0.0 0.00 0.00 0.00 100 1009.3
20260509025655 101 109 0.0 0.0 0.00 0.00 0.00 100 1009.3
20260509025145 101 109 0.0 0.0 0.00 0.00 0.00 100 1009.2
20260509024645 101 109 0.0 0.0 0.00 0.00 0.00 100 1009.1
20260509024140 101 109 0.0 0.0 0.00 0.00 0.00 100 1009.0
20260509023910 101 109 0.0 0.0 0.00 0.00 0.00 100 1009.0
20260509023136 101 109 0.0 0.0 0.00 0.00 0.00 100 1008.9
20260509022904 101 109 0.0 0.0 0.00 0.00 0.00 100 1008.8
20260509022130 101 109 0.0 4.0 0.00 0.00 0.00 100 1008.8
20260509021625 102 109 0.0 6.0 0.00 0.00 0.00 100 1008.8
20260509021120 102 111 3.0 6.0 0.00 0.00 0.00 100 1008.6
20260509020614 102 142 0.0 0.0 0.00 0.00 0.00 100 1008.6
20260509020340 102 142 0.0 1.0 0.00 0.00 0.00 100 1008.5
20260509015603 102 142 0.0 5.0 0.00 0.00 0.00 100 1008.5
20260509015059 103 142 1.0 5.0 0.00 0.00 0.00 100 1008.4
20260509014555 102 129 1.0 5.0 0.00 0.00 0.00 100 1008.4
20260509014054 103 102 3.0 5.0 0.00 0.00 0.00 100 1008.3
20260509013552 102 130 0.0 6.0 0.00 0.00 0.00 100 1008.2
20260509013053 103 146 0.0 6.0 0.00 0.00 0.00 100 1008.2
20260509012552 103 156 3.0 7.0 0.00 0.00 0.00 100 1008.3
20260509012052 103 136 3.0 7.0 0.00 0.00 0.00 100 1008.3
20260509011552 103 156 0.0 0.0 0.00 0.00 0.00 100 1008.3
20260509011048 103 156 0.0 0.0 0.00 0.00 0.00 100 1008.3
20260509010537 103 156 0.0 2.0 0.00 0.00 0.00 100 1008.3
20260509010248 103 156 0.0 6.0 0.00 0.00 0.00 100 1008.3
20260509005511 103 136 0.0 6.0 0.00 0.00 0.00 100 1008.2
20260509005013 103 147 3.0 5.0 0.00 0.00 0.00 100 1008.2
20260509004502 103 122 0.0 4.0 0.00 0.00 0.00 100 1008.2
20260509003947 103 130 0.0 0.0 0.00 0.00 0.00 100 1008.2
20260509003442 104 130 0.0 0.0 0.00 0.00 0.00 100 1008.2
20260509002942 103 130 0.0 0.0 0.00 0.00 0.00 100 1008.2
20260509002431 103 130 0.0 0.0 0.00 0.00 0.00 100 1008.2
20260509002157 103 130 0.0 0.0 0.00 0.00 0.00 100 1008.3
20260509001422 104 130 0.0 0.0 0.00 0.00 0.00 100 1008.2
20260509000916 103 130 0.0 0.0 0.00 0.00 0.00 100 1008.2
20260509000410 103 130 0.0 5.0 0.00 0.00 0.00 100 1008.1
20260508235902 103 130 0.0 7.0 0.00 0.00 0.00 100 1008.2
20260508235351 103 119 0.0 4.0 0.00 0.00 0.00 100 1008.3
20260508235347 103 151 5.0 7.0 0.00 0.00 0.00 100 1008.2
20260508234341 103 119 0.0 4.0 0.00 0.00 0.00 100 1008.3
20260508233835 103 109 0.0 0.0 0.00 0.00 0.00 100 1008.2
20260508233329 103 109 0.0 0.0 0.00 0.00 0.00 100 1008.2
20260508232823 103 109 0.0 0.0 0.00 0.00 0.00 100 1008.2
20260508232319 103 109 0.0 0.0 0.00 0.00 0.00 100 1008.2
20260508231803 103 109 0.0 0.0 0.00 0.00 0.00 100 1008.2
20260508231302 103 109 0.0 0.0 0.00 0.00 0.00 100 1008.2
20260508230753 103 109 0.0 5.0 0.00 0.00 0.00 100 1008.2
20260508230249 103 109 0.0 6.0 0.00 0.00 0.00 100 1008.1
20260508225743 103 126 2.0 6.0 0.00 0.00 0.00 100 1008.1
20260508225245 103 102 0.0 6.0 0.00 0.00 0.00 100 1008.2
20260508224743 103 144 3.0 6.0 0.00 0.00 0.00 100 1008.2
20260508224243 103 144 0.0 6.0 0.00 0.00 0.00 100 1008.3
20260508223955 103 136 1.0 6.0 0.00 0.00 0.00 100 1008.2
20260508223224 104 122 3.0 9.0 0.00 0.00 0.00 100 1008.2
20260508222724 104 113 0.0 9.0 0.00 0.00 0.00 100 1008.3
20260508222456 104 87 0.0 6.0 0.00 0.00 0.00 100 1008.3
20260508221718 104 109 2.0 6.0 0.00 0.00 0.00 100 1008.2
20260508221218 104 158 3.0 5.0 0.00 0.00 0.00 100 1008.2
20260508220712 104 126 1.0 6.0 0.00 0.00 0.00 100 1008.2
20260508220213 104 126 0.0 8.0 0.00 0.00 0.00 100 1008.1
20260508215706 105 137 1.0 8.0 0.00 0.00 0.00 100 1008.2
20260508215206 105 122 2.0 6.0 0.00 0.00 0.00 100 1008.2
20260508214934 104 130 0.0 6.0 0.00 0.00 0.00 100 1008.3
20260508214203 104 130 3.0 6.0 0.00 0.00 0.00 100 1008.5
20260508213700 104 125 0.0 6.0 0.00 0.00 0.00 100 1008.5
20260508213159 104 132 3.0 6.0 0.00 0.00 0.00 100 1008.5
20260508212700 104 102 3.0 7.0 0.00 0.00 0.00 100 1008.5
20260508212159 104 105 1.0 7.0 0.00 0.00 0.00 100 1008.5
20260508211658 104 75 0.0 6.0 0.00 0.00 0.00 100 1008.6
20260508211154 104 120 0.0 5.0 0.00 0.00 0.00 100 1008.8
20260508210650 104 80 0.0 4.0 0.00 0.00 0.00 100 1008.9
20260508210143 104 80 0.0 6.0 0.00 0.00 0.00 100 1008.9
20260508205627 104 25 2.0 6.0 0.00 0.00 0.00 100 1008.9
20260508205123 103 156 1.0 6.0 0.00 0.00 0.00 100 1009.0
20260508204850 103 22 0.0 6.0 0.00 0.00 0.00 100 1009.1
20260508204113 103 130 0.0 8.0 0.00 0.00 0.00 100 1009.2
20260508203608 104 154 1.0 8.0 0.00 0.00 0.00 100 1009.2
20260508203108 104 11 2.0 8.0 0.00 0.00 0.00 100 1009.2
20260508202609 104 147 4.0 9.0 0.00 0.00 0.00 100 1009.2
20260508202103 105 129 0.0 9.0 0.00 0.00 0.00 100 1009.2
20260508201603 104 153 3.0 7.0 0.00 0.00 0.00 100 1009.2
20260508201104 105 16 1.0 9.0 0.00 0.00 0.00 100 1009.3
20260508201100 105 46 0.0 9.0 0.00 0.00 0.00 100 1009.3
20260508200329 105 68 2.0 6.0 0.00 0.00 0.00 100 1009.4
20260508195557 104 163 0.0 6.0 0.00 0.00 0.00 100 1009.5
20260508195048 103 118 3.0 5.0 0.00 0.00 0.00 100 1009.6
20260508194546 103 122 0.0 5.0 0.00 0.00 0.00 100 1009.7
20260508194046 103 82 0.0 5.0 0.00 0.00 0.00 100 1009.9
20260508193543 103 22 1.0 6.0 0.00 0.00 0.00 100 1009.9
20260508193042 103 73 0.0 6.0 0.00 0.00 0.00 100 1010.0
20260508192540 103 19 0.0 6.0 0.00 0.00 0.00 100 1010.0
20260508192040 103 126 1.0 5.0 0.00 0.00 0.00 100 1010.2
20260508191535 103 82 2.0 7.0 0.00 0.00 0.00 100 1010.2
20260508191030 104 109 3.0 7.0 0.00 0.00 0.00 100 1010.2
20260508190751 104 333 0.0 5.0 0.00 0.00 0.00 100 1010.3
20260508190021 105 12 2.0 6.0 0.00 0.00 0.00 100 1010.2
20260508185514 104 30 0.0 6.0 0.00 0.00 0.00 100 1010.3
20260508185013 104 136 0.0 5.0 0.00 0.00 0.00 100 1010.4
20260508184505 103 126 3.0 6.0 0.00 0.00 0.00 100 1010.4
20260508184236 103 54 0.0 6.0 0.00 0.00 0.00 100 1010.5
20260508183503 104 132 1.0 6.0 0.00 0.00 0.00 100 1010.6
20260508183001 103 165 4.0 6.0 0.00 0.00 0.00 100 1010.7
20260508182501 104 60 3.0 9.0 0.00 0.00 0.00 100 1010.7
20260508182001 103 68 4.0 9.0 0.00 0.00 0.00 100 1010.8
20260508181458 103 8 2.0 6.0 0.00 0.00 0.00 100 1010.9
20260508181229 103 91 0.0 6.0 0.00 0.00 0.00 100 1011.0
20260508180458 103 315 4.0 6.0 0.00 0.00 0.00 100 1011.1
20260508175957 103 210 2.0 5.0 0.00 0.00 0.00 100 1011.2
20260508175456 103 144 4.0 7.0 0.00 0.00 0.00 100 1011.1
20260508174957 103 158 1.0 7.0 0.00 0.00 0.00 100 1011.2
20260508174451 102 348 0.0 5.0 0.00 0.00 0.00 100 1011.3
20260508173950 103 310 1.0 5.0 0.00 0.00 0.00 100 1011.4
20260508173449 103 119 4.0 5.0 0.00 0.00 0.00 100 1011.4
20260508173220 103 78 0.0 5.0 0.00 0.00 0.00 100 1011.5
20260508172719 102 268 1.0 5.0 0.00 0.00 0.00 100 1011.6
20260508171944 102 322 4.0 7.0 0.00 0.00 0.00 100 1011.6
20260508171443 102 302 5.0 7.0 0.00 0.00 0.00 100 1011.6
20260508170943 101 337 3.0 5.0 0.00 0.00 0.00 100 1011.8
20260508170443 101 47 0.0 3.0 0.00 0.00 0.00 100 1011.8
20260508165934 101 47 0.0 6.0 0.00 0.00 0.00 100 1011.8
20260508165432 100 21 3.0 6.0 0.00 0.00 0.00 100 1011.9
20260508165203 100 81 0.0 6.0 0.00 0.00 0.00 100 1011.9
20260508164432 100 29 0.0 0.0 0.00 0.00 0.00 100 1012.1
20260508163924 99 29 0.0 0.0 0.00 0.00 0.00 100 1012.3
20260508163422 99 29 0.0 0.0 0.00 0.00 0.00 100 1012.3
20260508163418 99 29 0.0 0.0 0.00 0.00 0.00 100 1012.3
20260508162407 99 29 0.0 0.0 0.00 0.00 0.00 100 1012.5
20260508161844 99 29 0.0 0.0 0.00 0.00 0.00 100 1012.5
20260508161840 98 29 0.0 0.0 0.00 0.00 0.00 100 1012.4
20260508160832 99 29 0.0 0.0 0.00 0.00 0.00 100 1012.5
20260508160556 99 29 0.0 0.0 0.00 0.00 0.00 100 1012.6
20260508160043 99 29 0.0 0.0 0.00 0.00 0.00 100 1012.6
20260508155538 98 29 0.0 0.0 0.00 0.00 0.00 100 1012.6
20260508154802 98 29 0.0 0.0 0.00 0.00 0.00 100 1012.8
20260508154304 98 29 0.0 0.0 0.00 0.00 0.00 100 1012.8
20260508154300 98 29 0.0 0.0 0.00 0.00 0.00 100 1012.8
20260508153518 98 29 0.0 0.0 0.00 0.00 0.00 100 1013.0
20260508152740 98 29 0.0 0.0 0.00 0.00 0.00 100 1012.9
20260508152224 98 29 0.0 0.0 0.00 0.00 0.00 100 1012.9
20260508151721 97 29 0.0 0.0 0.00 0.00 0.00 100 1012.9
20260508151441 97 29 0.0 0.0 0.00 0.00 0.00 100 1013.0
20260508150909 97 29 0.0 0.0 0.00 0.00 0.00 100 1013.0
20260508150136 97 29 0.0 0.0 0.00 0.00 0.00 100 1013.0
20260508145632 97 29 0.0 0.0 0.00 0.00 0.00 100 1013.1
20260508145120 97 29 0.0 0.0 0.00 0.00 0.00 100 1013.0
20260508144616 97 29 0.0 0.0 0.00 0.00 0.00 100 1012.9
20260508144112 97 29 0.0 0.0 0.00 0.00 0.00 100 1012.9
20260508143607 97 29 0.0 0.0 0.00 0.00 0.00 100 1013.0
20260508143104 96 29 0.0 5.0 0.00 0.00 0.00 100 1013.0
20260508142557 97 29 0.0 5.0 0.00 0.00 0.00 100 1012.9
20260508142055 96 109 0.0 4.0 0.00 0.00 0.00 100 1012.6
20260508141824 96 139 3.0 4.0 0.00 0.00 0.00 100 1012.6
20260508141052 96 82 0.0 3.0 0.00 0.00 0.00 100 1012.6
20260508140808 96 82 0.0 1.0 0.00 0.00 0.00 100 1012.8
20260508140018 96 82 0.0 4.0 0.00 0.00 0.00 100 1012.9
20260508135504 96 337 0.0 4.0 0.00 0.00 0.00 100 1012.8
20260508135233 96 337 0.0 0.0 0.00 0.00 0.00 100 1013.0
20260508134443 96 337 0.0 0.0 0.00 0.00 0.00 100 1013.1
20260508133920 96 337 0.0 0.0 0.00 0.00 0.00 100 1013.1
20260508133410 96 337 0.0 0.0 0.00 0.00 0.00 100 1013.1
20260508132902 96 337 0.0 0.0 0.00 0.00 0.00 100 1013.1
20260508132629 96 337 0.0 1.0 0.00 0.00 0.00 100 1013.1
20260508131859 95 337 0.0 4.0 0.00 0.00 0.00 100 1012.9
20260508131400 95 337 1.0 4.0 0.00 0.00 0.00 100 1012.8
20260508130844 95 43 0.0 0.0 0.00 0.00 0.00 100 1013.2
20260508130315 95 43 0.0 0.0 0.00 0.00 0.00 100 1013.4
20260508125802 95 43 0.0 0.0 0.00 0.00 0.00 100 1013.3
20260508125532 95 43 0.0 4.0 0.00 0.00 0.00 100 1013.2
20260508124758 95 43 0.0 4.0 0.00 0.00 0.00 100 1013.1
20260508124527 95 29 0.0 0.0 0.00 0.00 0.00 100 1013.3
20260508123750 95 29 0.0 0.0 0.00 0.00 0.00 100 1013.2
20260508123240 95 29 0.0 0.0 0.00 0.00 0.00 100 1013.2
20260508122734 95 29 0.0 0.0 0.00 0.00 0.00 100 1013.2
20260508122232 95 29 0.0 0.0 0.00 0.00 0.00 100 1013.2
20260508121712 95 29 0.0 2.0 0.00 0.00 0.00 100 1013.3
20260508121211 95 29 0.0 6.0 0.00 0.00 0.00 100 1013.4
20260508120659 94 47 0.0 6.0 0.00 0.00 0.00 100 1013.4
20260508120200 94 88 0.0 0.0 0.00 0.00 0.00 100 1013.6
20260508115650 94 88 0.0 5.0 0.00 0.00 0.00 100 1013.6
20260508115128 95 88 0.0 8.0 0.00 0.00 0.00 100 1013.6
20260508114604 94 77 3.0 8.0 0.00 0.00 0.00 100 1013.8
20260508114100 95 348 0.0 4.0 0.00 0.00 0.00 100 1014.0
20260508113558 95 348 0.0 5.0 0.00 0.00 0.00 100 1014.0
20260508113058 95 36 0.0 5.0 0.00 0.00 0.00 100 1013.8
20260508112552 94 334 0.0 5.0 0.00 0.00 0.00 100 1013.8
20260508112044 94 12 0.0 3.0 0.00 0.00 0.00 100 1013.8
20260508111543 95 4 1.0 3.0 0.00 0.00 0.00 100 1013.9